Asheville, NC

9:48 AM EDT on October 18, 2019 (GMT -0400)
Asheville Regional

Weather History for KAVL - May, 2019

Change the Weather History Date:

Saturday, May 11, 2019

  Actual Average Record
Temperature  
Mean Temperature 66 °F 62 °F  
Max Temperature 70 °F 74 °F 89 °F (1889)
Min Temperature 61 °F 50 °F 30 °F (1966)
Degree Days  
Heating Degree Days 0 4  
Month to date heating degree days 1 56  
Since 1 July heating degree days 3528 4128  
Cooling Degree Days 1 1  
Month to date cooling degree days 32 10  
Year to date cooling degree days 49 18  
Growing Degree Days 16 (Base 50)    
Moisture  
Dew Point 62 °F    
Average Humidity 92    
Maximum Humidity 100    
Minimum Humidity 84    
Precipitation  
Precipitation 1.26 in 0.11 in 1.72 in (1943)
Month to date precipitation 3.18 1.24  
Year to date precipitation 26.97 15.83  
Snow  
Snow 0.00 in 0.00 in 0.00 in ()
Month to date snowfall 0.0 0.0  
Since 1 July snowfall 11.4 9.9  
Snow Depth 0.00 in    
Sea Level Pressure  
Sea Level Pressure 29.97 in    
Wind  
Wind Speed 3 mph (SSE)    
Max Wind Speed 12 mph    
Max Gust Speed 16 mph    
Visibility 7 miles    
Events Rain , Thunderstorm    
T = Trace of Precipitation, MM = Missing Value Source: NWS Daily Summary

Daily Weather History Graph

Daily Weather History Graph

Search for Another Location

Airport or City:

Astronomy

May. 11, 2019 Rise Set
Actual Time 6:29 AM EDT 8:24 PM EDT
Civil Twilight 6:01 AM EDT 8:52 PM EDT
Nautical Twilight 5:27 AM EDT 9:26 PM EDT
Astronomical Twilight 4:51 AM EDT 10:02 PM EDT
Moon 12:36 PM EDT (5/11) 2:03 AM EDT (5/11)
Length of Visible Light 14h 51m
Length of Day
13h 55m
Waxing Crescent, 46% of the Moon is Illuminated
May 11
Waxing Crescent
May 11
First Quarter
May 18
Full
May 26
Last Quarter
Jun 3
New

Hourly Weather History & Observations

Time (EDT) Temp. Dew Point Humidity Pressure Visibility Wind Dir Wind Speed Gust Speed Precip Events Conditions
12:37 AM 62.1 °F 60.1 °F 93% 30.10 in 10.0 mi SSE 3.5 mph - 0.00 in Rain Light Rain
12:54 AM 62.1 °F 60.1 °F 93% 30.04 in 10.0 mi SSE 4.6 mph - 0.00 in Rain Light Rain
1:54 AM 62.1 °F 59.0 °F 90% 30.03 in 10.0 mi SSE 3.5 mph - 0.00 in Rain Light Rain
2:12 AM 61.0 °F 59.0 °F 93% 30.10 in 10.0 mi SE 3.5 mph - 0.00 in Rain Light Rain
2:20 AM 61.0 °F 59.0 °F 93% 30.09 in 10.0 mi SE 4.6 mph - 0.00 in Rain Light Rain
2:54 AM 62.1 °F 59.0 °F 90% 30.03 in 10.0 mi SSE 4.6 mph - 0.00 in   Clear
3:54 AM 61.0 °F 59.0 °F 93% 30.00 in 7.0 mi Calm Calm - 0.01 in Rain Light Rain
4:54 AM 62.1 °F 60.1 °F 93% 29.96 in 10.0 mi Calm Calm - 0.00 in   Overcast
5:41 AM 62.1 °F 60.1 °F 93% 30.02 in 10.0 mi South 3.5 mph - N/A   Overcast
5:51 AM 62.6 °F 60.8 °F 94% 30.02 in 9.0 mi South 3.5 mph - N/A   Overcast
5:54 AM 62.1 °F 60.1 °F 93% 29.96 in 8.0 mi South 4.6 mph - N/A   Overcast
6:54 AM 62.1 °F 60.1 °F 93% 29.97 in 7.0 mi Calm Calm - N/A   Overcast
7:02 AM 62.1 °F 60.1 °F 93% 30.03 in 8.0 mi Calm Calm - 0.00 in Rain Light Rain
7:25 AM 63.0 °F 60.1 °F 90% 30.02 in 4.0 mi East 3.5 mph - 0.03 in Rain Light Rain
7:54 AM 63.0 °F 60.1 °F 90% 29.99 in 3.0 mi Calm Calm - 0.07 in Rain Light Rain
8:10 AM 63.0 °F 61.0 °F 93% 30.04 in 6.0 mi Calm Calm - 0.01 in Rain Light Rain
8:30 AM 63.0 °F 61.0 °F 93% 30.04 in 5.0 mi SSE 3.5 mph - 0.03 in Rain Light Rain
8:50 AM 62.6 °F 60.8 °F 94% 30.04 in 2.0 mi Calm Calm - 0.09 in Rain Heavy Rain
8:54 AM 63.0 °F 61.0 °F 93% 29.99 in 2.0 mi Calm Calm - 0.11 in Rain Heavy Rain
9:27 AM 63.0 °F 61.0 °F 93% 30.05 in 3.0 mi SSE 4.6 mph - 0.12 in Rain Rain
9:37 AM 63.0 °F 61.0 °F 93% 30.04 in 3.0 mi Calm Calm - 0.15 in Rain Rain
9:54 AM 63.0 °F 61.0 °F 93% 29.99 in 9.0 mi South 4.6 mph - 0.15 in Rain Light Rain
10:11 AM 63.0 °F 61.0 °F 93% 30.05 in 4.0 mi SSE 3.5 mph - 0.03 in Rain Rain
10:54 AM 63.0 °F 61.0 °F 93% 29.99 in 4.0 mi SE 3.5 mph - 0.11 in Rain Rain
11:21 AM 64.0 °F 61.0 °F 90% 30.04 in 1.0 mi NW 4.6 mph - 0.08 in Rain Heavy Rain
11:27 AM 64.0 °F 61.0 °F 90% 30.04 in 1.5 mi NW 3.5 mph - 0.11 in Rain , Thunderstorm Heavy Rain
11:41 AM 63.0 °F 61.0 °F 93% 30.03 in 1.0 mi NNE 4.6 mph - 0.24 in Rain Heavy Rain
11:46 AM 63.0 °F 61.0 °F 93% 30.03 in 2.0 mi Calm Calm - 0.26 in Rain Light Rain
11:54 AM 63.0 °F 62.1 °F 97% 29.98 in 2.0 mi Calm Calm - 0.32 in Rain Rain
12:04 PM 64.0 °F 62.1 °F 93% 30.03 in 6.0 mi Calm Calm - 0.01 in Rain Light Rain
12:26 PM 64.0 °F 62.1 °F 93% 30.03 in 3.0 mi SSW 3.5 mph - 0.04 in Rain Light Rain
12:54 PM 64.0 °F 62.1 °F 93% 29.97 in 6.0 mi Calm Calm - 0.09 in Rain Light Rain
1:54 PM 64.9 °F 63.0 °F 93% 29.96 in 5.0 mi SSW 4.6 mph - 0.04 in Rain Rain
2:13 PM 64.9 °F 63.0 °F 93% 30.01 in 10.0 mi South 3.5 mph - 0.01 in Rain Light Rain
2:54 PM 66.0 °F 62.1 °F 87% 29.95 in 10.0 mi SSE 4.6 mph - 0.02 in Rain Light Rain
3:26 PM 66.0 °F 63.0 °F 90% 29.99 in 1.8 mi Calm Calm - 0.01 in Rain Heavy Rain
3:30 PM 66.0 °F 63.0 °F 90% 29.99 in 0.8 mi NNW 4.6 mph - 0.05 in Rain Heavy Rain
3:41 PM 66.0 °F 64.0 °F 93% 29.98 in 1.8 mi North 3.5 mph - 0.18 in Rain Light Rain
3:47 PM 66.0 °F 64.0 °F 93% 29.98 in 9.0 mi North 3.5 mph - 0.18 in Rain Light Rain
3:54 PM 66.9 °F 64.0 °F 90% 29.92 in 10.0 mi North 4.6 mph - 0.18 in   Overcast
4:10 PM 66.9 °F 63.0 °F 87% 29.97 in 10.0 mi Calm Calm - N/A   Overcast
4:17 PM 68.0 °F 64.0 °F 87% 29.96 in 10.0 mi Calm Calm - N/A   Overcast
4:31 PM 68.0 °F 64.0 °F 87% 29.95 in 10.0 mi Calm Calm - N/A   Mostly Cloudy
4:46 PM 69.1 °F 64.0 °F 84% 29.94 in 10.0 mi Calm Calm - N/A   Mostly Cloudy
4:54 PM 68.0 °F 64.0 °F 87% 29.88 in 10.0 mi Calm Calm - N/A   Overcast
5:54 PM 69.1 °F 64.0 °F 84% 29.86 in 10.0 mi Calm Calm - N/A   Unknown
6:54 PM 70.0 °F 64.9 °F 84% 29.85 in 10.0 mi Calm Calm - N/A   Mostly Cloudy
7:11 PM 70.0 °F 64.9 °F 84% 29.91 in 10.0 mi NNE 4.6 mph - N/A   Overcast
7:28 PM 69.1 °F 66.0 °F 90% 29.92 in 10.0 mi South 3.5 mph - 0.00 in Rain Light Rain
7:41 PM 69.1 °F 66.0 °F 90% 29.92 in 10.0 mi SW 3.5 mph - 0.00 in   Overcast
7:54 PM 69.1 °F 66.0 °F 90% 29.87 in 10.0 mi SW 3.5 mph - 0.00 in   Mostly Cloudy
8:04 PM 69.1 °F 66.0 °F 90% 29.93 in 9.0 mi SSE 4.6 mph - N/A   Mostly Cloudy
8:54 PM 68.0 °F 64.0 °F 87% 29.84 in 10.0 mi SE 3.5 mph - N/A   Mostly Cloudy
9:54 PM 66.9 °F 64.0 °F 90% 29.85 in 4.0 mi SSE 9.2 mph - 0.03 in Rain Light Rain
10:10 PM 66.0 °F 63.0 °F 90% 29.91 in 2.5 mi SSE 6.9 mph - 0.06 in Rain Light Rain
10:30 PM 66.0 °F 63.0 °F 90% 29.91 in 2.5 mi SE 3.5 mph - 0.07 in Rain Light Rain
10:54 PM 66.0 °F 63.0 °F 90% 29.85 in 10.0 mi SSE 6.9 mph - 0.10 in Rain Light Rain
11:25 PM 64.9 °F 62.1 °F 90% 29.90 in 10.0 mi SSE 6.9 mph - 0.00 in   Overcast
11:52 PM 64.4 °F 62.6 °F 94% 29.89 in 10.0 mi SSE 5.8 mph - 0.00 in   Overcast
11:54 PM 64.9 °F 62.1 °F 90% 29.83 in 10.0 mi SSE 6.9 mph - 0.00 in   Overcast